Memphis, TN

8:18 PM CST on January 18, 2017 (GMT -0600)
Memphis International

Weather History for KMEM - October, 2012

Change the Weather History Date:

Thursday, October 11, 2012

  Actual Average Record
Temperature  
Mean Temperature 58 °F 66 °F  
Max Temperature 62 °F 76 °F 91 °F (1975)
Min Temperature 54 °F 55 °F 35 °F (1964)
Degree Days  
Heating Degree Days 7 3  
Month to date heating degree days 56 22  
Since 1 July heating degree days 58 33  
Cooling Degree Days 0 3  
Month to date cooling degree days 9 49  
Year to date cooling degree days 2563 2200  
Growing Degree Days 8 (Base 50)    
Moisture  
Dew Point 46 °F    
Average Humidity 67    
Maximum Humidity 90    
Minimum Humidity 43    
Precipitation  
Precipitation 0.19 in 0.12 in 3.10 in (2001)
Month to date precipitation 1.41 1.29  
Year to date precipitation 28.02 39.76  
Snow  
Snow 0.00 in 0.00 in 0.00 in (2002)
Month to date snowfall 0.0 0.0  
Since 1 July snowfall 0.0 0.0  
Since 1 September snowfall 0.0 0.0  
Snow Depth 0.00 in    
Sea Level Pressure  
Sea Level Pressure 30.23 in    
Wind  
Wind Speed 6 mph (East)    
Max Wind Speed 13 mph    
Max Gust Speed 16 mph    
Visibility 9 miles    
Events Rain    
T = Trace of Precipitation, MM = Missing Value Source: NWS Daily Summary

Daily Weather History Graph

Daily Weather History Graph

Search for Another Location

Airport or City:

Trip Planner

Search our weather history database for the weather conditions in past years. The results will help you decide how hot, cold, wet, or windy it might be!

Date:

Astronomy

Oct. 11, 2012 Rise Set
Actual Time 7:02 AM CDT 6:29 PM CDT
Civil Twilight 6:37 AM CDT 6:54 PM CDT
Nautical Twilight 6:08 AM CDT 7:24 PM CDT
Astronomical Twilight 5:38 AM CDT 7:53 PM CDT
Moon 2:50 AM CDT (10/11) 3:58 PM CDT (10/11)
Length of Visible Light 12h 17m
Length of Day
11h 26m
Waning Crescent, 18% of the Moon is Illuminated
Oct 11
Waning Crescent
Oct 15
New
Oct 21
First Quarter
Oct 29
Full
Nov 6
Last Quarter

Hourly Weather History & Observations

Time (CDT) Temp. Dew Point Humidity Pressure Visibility Wind Dir Wind Speed Gust Speed Precip Events Conditions
12:54 AM 55.0 °F 34.0 °F 45% 30.22 in 10.0 mi ENE 8.1 mph - N/A   Mostly Cloudy
1:54 AM 55.9 °F 34.0 °F 44% 30.22 in 10.0 mi ENE 8.1 mph - N/A   Overcast
2:54 AM 55.9 °F 35.1 °F 45% 30.22 in 10.0 mi East 8.1 mph - N/A   Overcast
3:54 AM 55.9 °F 35.1 °F 45% 30.21 in 10.0 mi East 8.1 mph - N/A   Overcast
4:54 AM 55.0 °F 36.0 °F 49% 30.21 in 10.0 mi East 8.1 mph - N/A   Overcast
5:54 AM 55.0 °F 37.0 °F 51% 30.24 in 10.0 mi East 6.9 mph - N/A   Overcast
6:54 AM 54.0 °F 37.9 °F 55% 30.25 in 10.0 mi East 8.1 mph - N/A   Overcast
7:54 AM 55.0 °F 39.0 °F 55% 30.24 in 10.0 mi ESE 9.2 mph - N/A   Overcast
8:54 AM 55.9 °F 39.9 °F 55% 30.25 in 10.0 mi SE 9.2 mph - N/A   Overcast
9:02 AM 55.4 °F 39.2 °F 54% 30.26 in 10.0 mi ESE 4.6 mph - N/A   Overcast
9:54 AM 57.0 °F 41.0 °F 55% 30.27 in 10.0 mi SE 6.9 mph - N/A   Overcast
10:54 AM 60.1 °F 43.0 °F 53% 30.27 in 10.0 mi East 3.5 mph - N/A   Overcast
11:54 AM 57.0 °F 48.0 °F 72% 30.27 in 5.0 mi East 3.5 mph - 0.04 in Rain Rain
12:03 PM 57.2 °F 48.2 °F 72% 30.28 in 7.0 mi Calm Calm - 0.02 in Rain Light Rain
12:21 PM 57.2 °F 46.4 °F 67% 30.26 in 2.5 mi SE 3.5 mph - 0.02 in Rain Light Rain
12:25 PM 57.2 °F 48.2 °F 72% 30.26 in 1.8 mi SSE 4.6 mph - 0.02 in Rain Heavy Rain
12:33 PM 55.4 °F 48.2 °F 77% 30.26 in 3.0 mi Calm Calm - 0.14 in Rain Light Rain
12:54 PM 57.0 °F 48.9 °F 74% 30.25 in 7.0 mi East 3.5 mph - 0.15 in Rain Light Rain
1:19 PM 57.2 °F 51.8 °F 82% 30.24 in 10.0 mi Variable 4.6 mph - 0.00 in   Overcast
1:54 PM 59.0 °F 52.0 °F 78% 30.22 in 10.0 mi Variable 6.9 mph - 0.00 in   Overcast
2:54 PM 60.1 °F 53.1 °F 78% 30.21 in 10.0 mi East 6.9 mph - N/A   Overcast
3:54 PM 61.0 °F 54.0 °F 78% 30.21 in 10.0 mi Variable 5.8 mph - 0.00 in   Overcast
4:54 PM 62.6 °F 55.4 °F 77% 30.20 in 10.0 mi East 5.8 mph - N/A   Overcast
5:54 PM 61.0 °F 55.0 °F 81% 30.19 in 10.0 mi East 6.9 mph - N/A   Mostly Cloudy
6:28 PM 60.8 °F 55.4 °F 82% 30.19 in 10.0 mi East 5.8 mph - N/A   Mostly Cloudy
6:54 PM 60.1 °F 55.0 °F 83% 30.19 in 10.0 mi East 4.6 mph - N/A   Scattered Clouds
8:54 PM 60.1 °F 55.9 °F 86% 30.20 in 10.0 mi East 6.9 mph - N/A   Scattered Clouds
9:54 PM 60.1 °F 55.9 °F 86% 30.20 in 10.0 mi ESE 4.6 mph - N/A   Scattered Clouds
10:54 PM 61.0 °F 57.0 °F 87% 30.19 in 10.0 mi ESE 5.8 mph - N/A   Mostly Cloudy
11:54 PM 62.1 °F 57.0 °F 84% 30.19 in 10.0 mi SE 4.6 mph - N/A   Scattered Clouds